Wind_Speed
13 12 12 12 11 11 11 10 9 8 7 7 7 8 9 8 9 9 9 9 9 8 8 9 9 8 8 8 8 8 8 8 8 7 7 7 7 7 7 7 6 6 5
13 12 11 11 11 11 10 10 9 8 7 6 7 7 8 9 9 9 9 9 9 8 8 9 9 9 8 8 8 7 8 8 8 7 8 7 7 7 7 6 6 5 5
13 12 11 10 10 10 10 9 8 8 7 6 6 6 6 7 8 8 9 9 8 9 8 9 9 10 9 8 7 7 7 8 8 7 7 7 7 7 6 6 5 5 5
13 12 11 10 10 9 9 9 8 8 7 6 6 6 7 7 7 7 7 7 8 8 9 9 9 9 9 8 8 7 7 7 7 7 6 7 6 6 6 6 5 5 4
13 12 11 10 10 9 9 8 8 8 7 6 6 6 6 6 6 6 6 7 8 8 8 9 8 8 8 8 7 7 6 6 6 6 6 6 6 6 6 5 5 4 4
13 12 11 10 9 10 9 9 8 8 7 6 5 6 6 6 6 5 6 6 7 8 8 8 7 7 7 7 7 6 5 5 5 5 5 5 6 6 6 5 4 4 4
13 12 12 11 10 10 9 8 8 8 8 6 6 6 5 6 5 6 7 6 7 7 7 7 6 6 6 6 6 5 4 5 5 5 4 5 5 5 5 4 4 4 4
13 12 12 11 11 10 9 9 8 7 7 6 6 6 6 6 5 5 6 7 7 7 6 6 6 6 6 5 4 4 4 4 5 4 4 4 4 4 4 4 4 3 3
13 13 12 12 11 10 10 9 8 7 7 6 6 6 6 6 5 5 5 6 6 5 5 5 5 5 5 4 4 4 4 4 4 3 4 3 3 3 3 3 3 2 2
13 13 13 13 12 11 11 10 9 7 6 6 6 5 5 5 5 5 5 5 5 5 4 5 5 5 5 4 4 3 4 5 4 4 3 2 3 3 2 2 2 2 1
13 13 12 12 11 11 11 11 10 8 7 6 6 6 5 5 5 5 5 5 5 5 5 5 5 5 5 5 4 4 4 4 4 3 3 3 3 3 2 2 2 2 2
13 13 12 12 11 11 11 10 10 9 8 7 6 6 6 5 4 5 4 5 5 5 5 5 5 5 6 5 4 4 4 4 4 3 3 3 2 2 2 2 2 2 2
13 13 13 12 12 11 11 11 10 10 9 8 6 6 6 5 4 4 4 4 4 4 4 4 5 5 4 4 4 4 4 4 3 3 3 3 3 3 2 2 2 2 2
13 13 13 13 12 12 11 11 10 10 9 8 7 6 5 5 4 3 3 3 3 3 3 3 3 3 3 4 4 4 3 3 3 3 3 3 3 3 3 2 2 3 2
13 12 12 12 12 12 11 11 10 9 9 8 7 5 4 4 3 3 3 3 3 3 3 3 3 3 3 3 3 3 2 3 2 3 3 2 2 2 3 3 3 3 3
12 12 12 12 11 11 11 11 10 9 8 8 7 6 5 3 3 3 3 2 2 2 3 2 2 2 2 2 2 2 2 2 2 2 2 2 2 2 2 2 3 3 3
11 12 12 12 11 11 11 10 9 9 8 8 8 6 5 3 3 3 2 2 2 2 3 2 3 2 2 2 2 2 2 2 2 2 1 1 1 1 1 2 3 3 3
11 11 12 12 12 12 11 10 9 9 8 8 8 7 6 4 3 3 2 2 2 2 2 2 2 2 2 1 1 1 1 1 1 1 1 1 0 1 0 1 2 2 1
10 11 11 11 11 11 11 10 10 10 9 8 8 7 6 5 4 2 2 2 1 1 1 1 2 1 1 1 1 1 1 1 1 1 2 1 1 1 1 1 1 1 1
10 10 10 10 10 10 11 10 10 10 9 8 8 7 6 5 4 2 1 1 1 0 1 1 1 1 1 1 1 0 1 1 2 1 2 2 2 2 2 2 2 2 2
9 9 9 9 10 10 10 10 10 9 8 7 7 6 6 5 4 2 1 1 0 1 1 0 1 1 0 0 0 1 1 2 3 3 2 2 2 2 2 2 3 4 4
8 8 8 8 9 10 9 9 9 9 8 8 7 6 5 5 4 2 2 1 1 2 2 1 2 1 1 1 1 1 1 2 3 4 4 3 3 4 4 4 4 4 4
8 8 7 8 9 9 9 9 8 8 8 7 6 5 4 4 3 2 2 1 1 2 3 2 2 2 2 2 2 2 2 3 4 4 4 4 4 5 5 6 6 6 5
9 9 8 8 8 9 9 8 7 7 7 6 5 5 4 3 3 3 2 2 2 3 3 3 3 3 3 3 3 3 4 4 4 4 4 5 5 6 6 7 7 7 7
9 9 9 9 9 9 8 8 7 6 6 6 5 5 5 4 3 3 3 2 2 3 3 3 4 4 4 4 4 5 5 5 5 5 5 5 6 7 7 7 7 8 8
9 9 9 9 9 10 9 7 7 6 6 6 5 5 5 4 3 3 4 3 3 3 3 4 4 5 5 5 5 6 6 6 6 7 7 6 7 7 8 9 9 9 10
Wind_Direction
60 61 61 60 58 53 48 49 53 56 64 69 75 80 86 96 102 103 105 107 108 106 106 106 106 112 113 112 106 103 104 105 104 106 108 109 111 109 103 104 103 98 93
56 57 57 55 54 52 47 44 44 49 61 67 77 85 86 89 98 103 105 108 109 109 108 99 98 100 106 104 104 107 107 106 106 108 106 107 107 107 108 107 102 96 94
54 53 54 52 50 48 44 43 42 47 52 58 68 81 88 90 95 100 101 101 104 106 102 99 98 95 98 100 104 104 106 108 110 107 107 105 108 107 110 105 99 95 92
54 53 53 50 47 43 42 45 45 46 48 54 61 69 77 88 93 98 98 95 97 98 98 98 98 95 93 96 98 102 102 107 111 104 106 109 109 107 110 104 100 94 91
51 51 50 48 46 42 41 47 43 45 47 53 60 68 71 75 83 92 89 91 90 93 96 96 97 96 93 93 95 102 103 111 111 102 102 107 107 104 100 100 102 97 90
46 46 46 45 43 43 39 41 40 40 46 53 63 66 66 70 81 86 81 89 90 92 93 92 93 93 89 89 90 94 101 110 112 100 99 103 103 102 100 96 95 91 89
44 44 44 42 42 42 42 42 44 45 48 54 60 68 73 79 84 83 75 79 87 89 91 89 86 85 84 85 85 86 97 105 98 98 99 101 101 103 104 98 86 80 77
44 43 43 44 43 42 40 40 43 47 47 48 54 64 65 67 73 77 73 71 76 80 82 80 82 82 81 88 87 77 72 93 94 101 91 96 105 107 105 97 87 81 81
43 42 43 44 45 44 41 38 40 47 45 47 54 58 59 59 63 69 68 71 75 77 78 77 83 84 84 88 76 73 70 83 77 98 93 96 108 108 106 93 86 82 82
44 44 44 44 45 45 45 43 40 42 46 51 57 58 59 61 59 63 66 68 73 75 73 73 79 81 82 87 81 86 81 84 75 84 88 98 99 93 88 86 69 62 59
43 43 43 44 43 44 45 44 43 43 45 48 51 55 57 59 62 66 66 65 68 71 72 70 70 77 78 80 83 82 78 80 78 78 73 80 92 78 71 67 49 47 55
41 42 43 44 43 42 42 44 45 44 44 47 51 55 54 58 64 69 65 61 60 64 66 70 72 82 77 77 83 80 77 80 75 74 72 74 83 74 69 53 44 42 34
39 40 40 40 40 40 40 40 41 40 40 43 49 55 56 57 61 65 63 60 59 62 64 70 73 79 84 86 84 77 77 78 63 67 77 78 71 60 59 51 40 38 24
39 38 38 40 40 39 39 37 36 38 38 39 41 44 49 54 56 57 53 50 55 58 55 62 72 74 75 87 88 84 85 86 74 71 75 71 60 54 61 48 37 40 57
36 37 37 37 38 38 38 34 32 35 36 33 34 37 43 52 54 52 52 36 37 35 34 45 51 57 75 90 92 86 82 89 82 76 72 60 43 50 55 54 59 62 67
34 34 37 38 37 38 34 32 33 32 30 27 30 36 41 46 52 58 64 48 40 34 33 39 46 60 85 87 75 73 67 68 60 57 58 57 50 46 52 69 71 75 74
30 31 33 33 35 37 35 31 29 27 24 24 29 34 38 42 38 45 56 54 46 44 40 56 60 67 80 77 73 70 65 52 43 47 59 75 24 41 60 66 93 88 71
25 26 28 29 29 31 31 29 26 22 19 20 21 25 26 29 22 29 37 41 41 40 50 54 56 79 89 88 81 55 50 30 15 354 333 309 285 307 41 95 103 89 68
20 22 25 27 25 24 24 22 21 17 17 21 17 17 18 13 9 20 21 28 33 53 73 65 71 88 95 80 81 45 17 4 3 347 339 324 283 281 270 280 257 278 296
12 15 19 21 19 18 17 13 11 11 10 10 9 11 13 9 2 21 33 37 42 174 118 107 116 102 78 62 57 32 0 316 308 323 330 322 307 293 292 274 267 264 269
0 4 8 10 10 10 10 8 7 4 3 0 357 2 6 -0 359 1 10 12 55 191 190 211 226 214 128 43 262 328 326 319 321 320 299 296 290 288 282 282 269 270 265
344 348 352 356 358 1 359 359 360 1 360 355 351 352 354 353 356 344 335 330 265 208 220 236 242 229 233 235 256 296 319 317 321 318 307 288 277 283 278 278 267 272 272
328 330 334 344 348 351 351 353 355 358 360 360 359 357 357 357 349 330 312 317 273 250 249 248 244 241 247 254 262 280 299 305 311 313 303 293 280 280 279 285 283 276 272
321 323 329 331 338 344 343 344 350 355 358 1 359 357 350 343 335 310 301 305 275 267 265 253 243 252 262 270 270 281 290 297 296 299 295 288 286 287 285 284 283 284 275
312 318 323 328 328 333 332 334 340 344 351 351 348 345 339 336 330 317 298 293 281 269 273 264 256 265 269 269 271 281 288 288 292 294 294 293 286 285 284 283 284 281 280
302 307 312 318 322 326 329 335 338 338 345 346 342 341 338 330 317 320 295 284 282 271 278 275 267 271 267 267 275 285 287 284 287 287 288 290 287 285 286 288 284 281 283
Height
5898 5898 5897 5897 5896 5896 5895 5894 5894 5893 5892 5892 5891 5891 5890 5889 5889 5889 5888 5888 5888 5888 5888 5888 5889 5889 5889 5889 5890 5890 5890 5890 5890 5890 5889 5889 5889 5889 5889 5889 5890 5889 5889
5900 5899 5899 5898 5898 5897 5897 5896 5895 5895 5894 5894 5893 5893 5892 5891 5891 5890 5890 5890 5890 5890 5890 5890 5890 5890 5890 5891 5891 5891 5891 5891 5891 5891 5891 5891 5891 5890 5890 5890 5890 5890 5890
5901 5901 5900 5900 5899 5899 5898 5898 5897 5896 5896 5895 5895 5894 5894 5894 5893 5893 5892 5892 5892 5891 5891 5892 5892 5892 5892 5892 5892 5892 5892 5892 5892 5892 5892 5892 5892 5891 5891 5891 5891 5891 5891
5903 5902 5902 5901 5901 5900 5900 5899 5898 5898 5897 5896 5896 5896 5895 5895 5895 5894 5894 5894 5893 5893 5893 5893 5893 5893 5893 5893 5893 5893 5893 5893 5893 5893 5893 5893 5893 5892 5892 5892 5892 5892 5891
5905 5904 5903 5903 5902 5901 5901 5900 5900 5899 5899 5898 5898 5897 5897 5897 5896 5896 5895 5895 5895 5895 5895 5895 5895 5895 5895 5894 5894 5894 5894 5894 5894 5894 5894 5894 5893 5893 5893 5893 5893 5892 5892
5907 5906 5905 5904 5903 5903 5902 5902 5901 5901 5900 5899 5899 5899 5898 5898 5898 5897 5897 5897 5897 5897 5896 5896 5896 5896 5896 5895 5895 5895 5895 5895 5894 5894 5894 5894 5894 5894 5894 5894 5894 5893 5892
5908 5907 5906 5905 5905 5904 5903 5903 5902 5902 5901 5901 5900 5900 5900 5899 5899 5898 5898 5898 5898 5898 5898 5898 5897 5897 5897 5896 5896 5896 5895 5895 5895 5895 5895 5895 5895 5895 5895 5895 5894 5893 5893
5910 5909 5908 5907 5906 5905 5905 5904 5903 5903 5903 5902 5902 5901 5901 5900 5900 5900 5899 5899 5899 5899 5899 5899 5898 5898 5897 5897 5897 5896 5896 5896 5896 5896 5896 5896 5896 5896 5895 5895 5894 5894 5893
5911 5910 5909 5908 5907 5907 5906 5905 5905 5904 5904 5903 5903 5902 5902 5902 5901 5901 5901 5901 5901 5900 5900 5900 5899 5899 5898 5898 5897 5897 5897 5896 5896 5896 5897 5896 5896 5896 5896 5895 5895 5894 5894
5913 5912 5911 5910 5909 5908 5907 5906 5906 5905 5905 5904 5904 5903 5903 5903 5902 5902 5902 5902 5901 5901 5901 5900 5900 5900 5899 5898 5898 5897 5897 5897 5897 5897 5897 5897 5897 5897 5896 5896 5895 5895 5894
5914 5913 5912 5911 5910 5909 5908 5907 5907 5906 5905 5905 5904 5904 5904 5903 5903 5903 5903 5902 5902 5902 5901 5901 5900 5900 5899 5899 5898 5898 5898 5898 5898 5897 5897 5897 5897 5897 5896 5896 5895 5895 5895
5916 5915 5913 5912 5911 5910 5909 5909 5908 5907 5906 5906 5905 5904 5904 5904 5904 5904 5903 5903 5903 5902 5902 5901 5901 5900 5900 5900 5899 5899 5899 5899 5898 5898 5898 5898 5898 5897 5897 5896 5896 5895 5895
5917 5916 5915 5913 5912 5911 5910 5910 5909 5908 5907 5906 5906 5905 5905 5904 5904 5904 5904 5904 5903 5903 5903 5902 5902 5902 5901 5901 5900 5900 5899 5899 5899 5899 5898 5898 5898 5897 5897 5896 5896 5895 5895
5919 5918 5916 5915 5913 5912 5912 5911 5910 5909 5908 5907 5906 5906 5905 5905 5905 5904 5904 5904 5904 5904 5903 5903 5902 5902 5902 5902 5901 5900 5900 5900 5900 5899 5899 5899 5898 5898 5897 5896 5896 5896 5895
5920 5919 5917 5916 5915 5914 5913 5912 5911 5910 5909 5908 5907 5906 5906 5905 5905 5905 5905 5904 5904 5904 5903 5903 5902 5902 5902 5902 5902 5901 5901 5900 5900 5900 5899 5899 5898 5898 5897 5897 5896 5896 5895
5921 5920 5919 5917 5916 5915 5914 5913 5911 5910 5909 5908 5907 5907 5906 5906 5905 5905 5905 5904 5904 5904 5904 5903 5903 5902 5902 5902 5902 5902 5901 5901 5900 5900 5899 5899 5899 5898 5898 5897 5897 5896 5896
5922 5921 5919 5918 5917 5916 5914 5913 5912 5911 5910 5909 5908 5907 5906 5906 5905 5905 5905 5905 5904 5904 5903 5903 5903 5903 5902 5902 5902 5902 5902 5901 5901 5900 5899 5899 5898 5898 5898 5897 5897 5897 5897
5922 5921 5919 5918 5917 5916 5915 5913 5912 5911 5910 5908 5907 5907 5906 5905 5905 5905 5905 5905 5904 5904 5903 5903 5903 5903 5903 5903 5902 5902 5902 5901 5901 5900 5899 5898 5898 5898 5898 5897 5897 5897 5897
5923 5921 5920 5918 5917 5916 5915 5913 5912 5911 5909 5908 5907 5906 5906 5905 5904 5904 5904 5904 5904 5903 5903 5903 5903 5903 5903 5903 5902 5902 5902 5901 5901 5900 5899 5898 5898 5898 5898 5897 5897 5897 5897
5923 5921 5920 5919 5917 5916 5914 5913 5912 5910 5909 5908 5907 5906 5905 5904 5904 5904 5903 5903 5903 5903 5903 5903 5903 5903 5903 5903 5902 5902 5901 5901 5900 5899 5899 5898 5898 5898 5897 5897 5897 5896 5896
5923 5922 5920 5919 5917 5916 5914 5913 5911 5910 5909 5908 5906 5905 5904 5904 5903 5903 5902 5902 5902 5902 5902 5902 5902 5902 5902 5902 5902 5902 5901 5901 5900 5899 5899 5898 5898 5897 5897 5896 5896 5896 5895
5923 5921 5920 5919 5917 5915 5914 5912 5911 5910 5908 5907 5905 5904 5903 5903 5902 5902 5902 5901 5901 5901 5901 5902 5901 5902 5902 5902 5902 5901 5901 5901 5900 5899 5898 5898 5897 5897 5896 5895 5895 5895 5894
5922 5920 5918 5917 5916 5915 5913 5912 5910 5909 5908 5906 5905 5903 5903 5902 5901 5901 5901 5901 5900 5900 5900 5900 5901 5901 5901 5901 5901 5901 5901 5900 5900 5899 5898 5897 5897 5896 5895 5894 5894 5893 5893
5921 5920 5917 5916 5915 5914 5912 5911 5909 5908 5907 5906 5905 5903 5902 5901 5901 5900 5900 5900 5900 5900 5899 5899 5900 5900 5900 5900 5900 5900 5900 5899 5899 5898 5898 5897 5896 5895 5894 5893 5892 5892 5891
5920 5919 5917 5915 5914 5913 5912 5910 5908 5907 5906 5905 5904 5903 5902 5901 5900 5899 5899 5899 5899 5898 5898 5898 5899 5899 5899 5898 5898 5898 5898 5898 5898 5897 5896 5895 5895 5894 5893 5892 5891 5890 5889
5918 5917 5916 5915 5913 5912 5910 5909 5907 5906 5905 5904 5903 5902 5901 5900 5899 5899 5898 5898 5897 5897 5897 5897 5897 5897 5897 5897 5896 5896 5896 5896 5896 5895 5895 5894 5893 5892 5891 5890 5889 5888 5887